Time,TemperatureF,DewpointF,PressureIn,WindDirection,WindDirectionDegrees,WindSpeedMPH,WindSpeedGustMPH,Humidity,HourlyPrecipIn,Conditions,Clouds,dailyrainin,SoftwareType,DateUTC
2013-05-19 00:02:00,74.0,-99.9,-100.00,North,-999,-999.0,-999.0,-999,0.00,,,0.00,,2013-05-19 05:02:00,
2013-05-19 00:12:00,74.0,-99.9,-100.00,North,-999,-999.0,-999.0,-999,0.00,,,0.00,,2013-05-19 05:12:00,
2013-05-19 00:22:00,74.0,-99.9,-100.00,North,-999,-999.0,-999.0,-999,0.00,,,0.00,,2013-05-19 05:22:00,
2013-05-19 00:30:00,76.0,-99.9,-100.00,North,-999,-999.0,-999.0,-999,0.00,,,-99.99,,2013-05-19 05:30:00,
2013-05-19 00:52:00,76.0,-99.9,-100.00,North,-999,-999.0,-999.0,-999,0.00,,,-99.99,,2013-05-19 05:52:00,
2013-05-19 01:02:00,76.0,-99.9,-100.00,North,-999,-999.0,-999.0,-999,0.00,,,-99.99,,2013-05-19 06:02:00,
2013-05-19 01:12:00,76.0,-99.9,-100.00,North,-999,-999.0,-999.0,-999,0.00,,,-99.99,,2013-05-19 06:12:00,
2013-05-19 01:22:00,76.0,-99.9,-100.00,North,-999,-999.0,-999.0,-999,0.00,,,-99.99,,2013-05-19 06:22:00,
2013-05-19 01:52:00,69.0,-99.9,-100.00,North,-999,-999.0,-999.0,-999,0.29,,,0.29,,2013-05-19 06:52:00,
2013-05-19 02:30:00,68.0,-99.9,-100.00,North,-999,-999.0,-999.0,-999,0.04,,,0.33,,2013-05-19 07:30:00,
2013-05-19 02:52:00,68.0,-99.9,-100.00,North,-999,-999.0,-999.0,-999,0.04,,,0.33,,2013-05-19 07:52:00,
2013-05-19 03:02:00,68.0,-99.9,-100.00,North,-999,-999.0,-999.0,-999,0.04,,,0.33,,2013-05-19 08:02:00,
2013-05-19 03:12:00,68.0,-99.9,-100.00,North,-999,-999.0,-999.0,-999,0.04,,,0.33,,2013-05-19 08:12:00,
2013-05-19 03:22:00,68.0,-99.9,-100.00,North,-999,-999.0,-999.0,-999,0.04,,,0.33,,2013-05-19 08:22:00,
2013-05-19 03:30:00,67.0,-99.9,-100.00,North,-999,-999.0,-999.0,-999,0.00,,,0.33,,2013-05-19 08:30:00,
2013-05-19 03:52:00,67.0,-99.9,-100.00,North,-999,-999.0,-999.0,-999,0.00,,,0.33,,2013-05-19 08:52:00,
2013-05-19 04:02:00,67.0,-99.9,-100.00,North,-999,-999.0,-999.0,-999,0.00,,,0.33,,2013-05-19 09:02:00,
2013-05-19 04:12:00,67.0,-99.9,-100.00,North,-999,-999.0,-999.0,-999,0.00,,,0.33,,2013-05-19 09:12:00,
2013-05-19 04:22:00,67.0,-99.9,-100.00,North,-999,-999.0,-999.0,-999,0.00,,,0.33,,2013-05-19 09:22:00,
2013-05-19 04:30:00,65.0,-99.9,-100.00,North,-999,-999.0,-999.0,-999,0.00,,,0.33,,2013-05-19 09:30:00,
2013-05-19 04:53:00,65.0,-99.9,-100.00,North,-999,-999.0,-999.0,-999,0.00,,,0.33,,2013-05-19 09:53:00,
2013-05-19 05:03:00,65.0,-99.9,-100.00,North,-999,-999.0,-999.0,-999,0.00,,,0.33,,2013-05-19 10:03:00,
2013-05-19 05:13:00,65.0,-99.9,-100.00,North,-999,-999.0,-999.0,-999,0.00,,,0.33,,2013-05-19 10:13:00,
2013-05-19 05:23:00,65.0,-99.9,-100.00,North,-999,-999.0,-999.0,-999,0.00,,,0.33,,2013-05-19 10:23:00,
2013-05-19 05:30:00,66.0,-99.9,-100.00,North,-999,-999.0,-999.0,-999,0.00,,,0.33,,2013-05-19 10:30:00,
2013-05-19 05:53:00,66.0,-99.9,-100.00,North,-999,-999.0,-999.0,-999,0.00,,,0.33,,2013-05-19 10:53:00,
2013-05-19 06:03:00,66.0,-99.9,-100.00,North,-999,-999.0,-999.0,-999,0.00,,,0.33,,2013-05-19 11:03:00,
2013-05-19 06:12:00,66.0,-99.9,-100.00,North,-999,-999.0,-999.0,-999,0.00,,,0.33,,2013-05-19 11:12:00,
2013-05-19 06:22:00,66.0,-99.9,-100.00,North,-999,-999.0,-999.0,-999,0.00,,,0.33,,2013-05-19 11:22:00,
2013-05-19 06:30:00,63.0,-99.9,-100.00,North,-999,-999.0,-999.0,-999,0.01,,,0.34,,2013-05-19 11:30:00,
2013-05-19 06:53:00,63.0,-99.9,-100.00,North,-999,-999.0,-999.0,-999,0.01,,,0.34,,2013-05-19 11:53:00,
2013-05-19 07:02:00,63.0,-99.9,-100.00,North,-999,-999.0,-999.0,-999,0.01,,,0.34,,2013-05-19 12:02:00,
2013-05-19 07:12:00,63.0,-99.9,-100.00,North,-999,-999.0,-999.0,-999,0.01,,,0.34,,2013-05-19 12:12:00,
2013-05-19 07:22:00,63.0,-99.9,-100.00,North,-999,-999.0,-999.0,-999,0.01,,,0.34,,2013-05-19 12:22:00,
2013-05-19 07:30:00,63.0,-99.9,-100.00,North,-999,-999.0,-999.0,-999,0.00,,,0.34,,2013-05-19 12:30:00,
2013-05-19 07:52:00,63.0,-99.9,-100.00,North,-999,-999.0,-999.0,-999,0.00,,,0.34,,2013-05-19 12:52:00,
2013-05-19 08:02:00,63.0,-99.9,-100.00,North,-999,-999.0,-999.0,-999,0.00,,,0.34,,2013-05-19 13:02:00,
2013-05-19 08:12:00,63.0,-99.9,-100.00,North,-999,-999.0,-999.0,-999,0.00,,,0.34,,2013-05-19 13:12:00,
2013-05-19 08:22:00,63.0,-99.9,-100.00,North,-999,-999.0,-999.0,-999,0.00,,,0.34,,2013-05-19 13:22:00,
2013-05-19 08:30:00,64.0,-99.9,-100.00,North,-999,-999.0,-999.0,-999,0.00,,,0.34,,2013-05-19 13:30:00,
2013-05-19 08:52:00,64.0,-99.9,-100.00,North,-999,-999.0,-999.0,-999,0.00,,,0.34,,2013-05-19 13:52:00,
2013-05-19 09:02:00,64.0,-99.9,-100.00,North,-999,-999.0,-999.0,-999,0.00,,,0.34,,2013-05-19 14:02:00,
2013-05-19 09:11:00,64.0,-99.9,-100.00,North,-999,-999.0,-999.0,-999,0.00,,,0.34,,2013-05-19 14:11:00,
2013-05-19 09:22:00,64.0,-99.9,-100.00,North,-999,-999.0,-999.0,-999,0.00,,,0.34,,2013-05-19 14:22:00,
2013-05-19 09:52:00,65.0,-99.9,-100.00,North,-999,-999.0,-999.0,-999,0.00,,,0.34,,2013-05-19 14:52:00,
2013-05-19 10:02:00,65.0,-99.9,-100.00,North,-999,-999.0,-999.0,-999,0.00,,,0.34,,2013-05-19 15:02:00,
2013-05-19 10:53:00,78.0,-99.9,-100.00,North,-999,-999.0,-999.0,-999,0.00,,,0.34,,2013-05-19 15:53:00,
2013-05-19 11:03:00,78.0,-99.9,-100.00,North,-999,-999.0,-999.0,-999,0.00,,,0.34,,2013-05-19 16:03:00,
2013-05-19 12:52:00,76.0,-99.9,-100.00,North,-999,-999.0,-999.0,-999,0.00,,,0.34,,2013-05-19 17:52:00,
2013-05-19 13:03:00,76.0,-99.9,-100.00,North,-999,-999.0,-999.0,-999,0.00,,,0.34,,2013-05-19 18:03:00,
2013-05-19 13:53:00,76.0,-99.9,-100.00,North,-999,-999.0,-999.0,-999,0.00,,,0.34,,2013-05-19 18:53:00,
2013-05-19 14:02:00,76.0,-99.9,-100.00,North,-999,-999.0,-999.0,-999,0.00,,,0.34,,2013-05-19 19:02:00,
2013-05-19 14:30:00,76.0,-99.9,-100.00,North,-999,-999.0,-999.0,-999,0.00,,,0.34,,2013-05-19 19:30:00,
2013-05-19 14:53:00,76.0,-99.9,-100.00,North,-999,-999.0,-999.0,-999,0.00,,,0.34,,2013-05-19 19:53:00,
2013-05-19 15:02:00,76.0,-99.9,-100.00,North,-999,-999.0,-999.0,-999,0.00,,,0.34,,2013-05-19 20:02:00,
2013-05-19 15:12:00,76.0,-99.9,-100.00,North,-999,-999.0,-999.0,-999,0.00,,,0.34,,2013-05-19 20:12:00,
2013-05-19 15:22:00,76.0,-99.9,-100.00,North,-999,-999.0,-999.0,-999,0.00,,,0.34,,2013-05-19 20:22:00,
2013-05-19 15:30:00,75.0,-99.9,-100.00,North,-999,-999.0,-999.0,-999,0.00,,,0.34,,2013-05-19 20:30:00,
2013-05-19 15:52:00,75.0,-99.9,-100.00,North,-999,-999.0,-999.0,-999,0.00,,,0.34,,2013-05-19 20:52:00,
2013-05-19 16:02:00,75.0,-99.9,-100.00,North,-999,-999.0,-999.0,-999,0.00,,,0.34,,2013-05-19 21:02:00,
2013-05-19 16:11:00,75.0,-99.9,-100.00,North,-999,-999.0,-999.0,-999,0.00,,,0.34,,2013-05-19 21:11:00,
2013-05-19 16:22:00,75.0,-99.9,-100.00,North,-999,-999.0,-999.0,-999,0.00,,,0.34,,2013-05-19 21:22:00,
2013-05-19 16:30:00,73.0,-99.9,-100.00,North,-999,-999.0,-999.0,-999,0.00,,,0.34,,2013-05-19 21:30:00,
2013-05-19 16:53:00,73.0,-99.9,-100.00,North,-999,-999.0,-999.0,-999,0.00,,,0.34,,2013-05-19 21:53:00,
2013-05-19 17:03:00,73.0,-99.9,-100.00,North,-999,-999.0,-999.0,-999,0.00,,,0.34,,2013-05-19 22:03:00,
2013-05-19 17:13:00,73.0,-99.9,-100.00,North,-999,-999.0,-999.0,-999,0.00,,,0.34,,2013-05-19 22:13:00,
2013-05-19 17:23:00,73.0,-99.9,-100.00,North,-999,-999.0,-999.0,-999,0.00,,,0.34,,2013-05-19 22:23:00,
2013-05-19 17:53:00,71.0,-99.9,-100.00,North,-999,-999.0,-999.0,-999,0.00,,,0.34,,2013-05-19 22:53:00,
2013-05-19 18:03:00,71.0,-99.9,-100.00,North,-999,-999.0,-999.0,-999,0.00,,,0.34,,2013-05-19 23:03:00,
2013-05-19 18:30:00,70.0,-99.9,-100.00,North,-999,-999.0,-999.0,-999,0.00,,,0.34,,2013-05-19 23:30:00,
2013-05-19 18:53:00,70.0,-99.9,-100.00,North,-999,-999.0,-999.0,-999,0.00,,,0.34,,2013-05-19 23:53:00,
2013-05-19 19:02:00,70.0,-99.9,-100.00,North,-999,-999.0,-999.0,-999,0.00,,,0.34,,2013-05-20 00:02:00,
2013-05-19 19:12:00,70.0,-99.9,-100.00,North,-999,-999.0,-999.0,-999,0.00,,,0.34,,2013-05-20 00:12:00,
2013-05-19 19:22:00,70.0,-99.9,-100.00,North,-999,-999.0,-999.0,-999,0.00,,,0.34,,2013-05-20 00:22:00,
2013-05-19 19:30:00,72.0,-99.9,-100.00,North,-999,-999.0,-999.0,-999,0.00,,,0.34,,2013-05-20 00:30:00,
2013-05-19 19:52:00,72.0,-99.9,-100.00,North,-999,-999.0,-999.0,-999,0.00,,,0.34,,2013-05-20 00:52:00,
2013-05-19 20:02:00,72.0,-99.9,-100.00,North,-999,-999.0,-999.0,-999,0.00,,,0.34,,2013-05-20 01:02:00,
2013-05-19 20:11:00,72.0,-99.9,-100.00,North,-999,-999.0,-999.0,-999,0.00,,,0.34,,2013-05-20 01:11:00,
2013-05-19 20:22:00,72.0,-99.9,-100.00,North,-999,-999.0,-999.0,-999,0.00,,,0.34,,2013-05-20 01:22:00,
2013-05-19 20:30:00,71.0,-99.9,-100.00,North,-999,-999.0,-999.0,-999,0.00,,,0.34,,2013-05-20 01:30:00,
2013-05-19 20:52:00,71.0,-99.9,-100.00,North,-999,-999.0,-999.0,-999,0.00,,,0.34,,2013-05-20 01:52:00,
2013-05-19 21:02:00,71.0,-99.9,-100.00,North,-999,-999.0,-999.0,-999,0.00,,,0.34,,2013-05-20 02:02:00,
2013-05-19 21:12:00,71.0,-99.9,-100.00,North,-999,-999.0,-999.0,-999,0.00,,,0.34,,2013-05-20 02:12:00,
2013-05-19 21:22:00,71.0,-99.9,-100.00,North,-999,-999.0,-999.0,-999,0.00,,,0.34,,2013-05-20 02:22:00,
2013-05-19 21:30:00,68.0,-99.9,-100.00,North,-999,-999.0,-999.0,-999,0.00,,,0.34,,2013-05-20 02:30:00,
2013-05-19 21:52:00,68.0,-99.9,-100.00,North,-999,-999.0,-999.0,-999,0.00,,,0.34,,2013-05-20 02:52:00,
2013-05-19 22:02:00,68.0,-99.9,-100.00,North,-999,-999.0,-999.0,-999,0.00,,,0.34,,2013-05-20 03:02:00,
2013-05-19 22:12:00,68.0,-99.9,-100.00,North,-999,-999.0,-999.0,-999,0.00,,,0.34,,2013-05-20 03:12:00,
2013-05-19 22:22:00,68.0,-99.9,-100.00,North,-999,-999.0,-999.0,-999,0.00,,,0.34,,2013-05-20 03:22:00,
2013-05-19 22:30:00,69.0,-99.9,-100.00,North,-999,-999.0,-999.0,-999,0.00,,,0.34,,2013-05-20 03:30:00,
2013-05-19 22:53:00,69.0,-99.9,-100.00,North,-999,-999.0,-999.0,-999,0.00,,,0.34,,2013-05-20 03:53:00,
2013-05-19 23:03:00,69.0,-99.9,-100.00,North,-999,-999.0,-999.0,-999,0.00,,,0.34,,2013-05-20 04:03:00,
2013-05-19 23:13:00,69.0,-99.9,-100.00,North,-999,-999.0,-999.0,-999,0.00,,,0.34,,2013-05-20 04:13:00,
2013-05-19 23:23:00,69.0,-99.9,-100.00,North,-999,-999.0,-999.0,-999,0.00,,,0.34,,2013-05-20 04:23:00,
2013-05-19 23:30:00,67.0,-99.9,-100.00,North,-999,-999.0,-999.0,-999,0.00,,,0.34,,2013-05-20 04:30:00,
2013-05-19 23:53:00,67.0,-99.9,-100.00,North,-999,-999.0,-999.0,-999,0.00,,,0.34,,2013-05-20 04:53:00,